Weather History for KAUO - May, 2013

Change the Weather History Date:

Monday, May 6, 2013

  Actual Average Record
Temperature  
Mean Temperature 54 °F -  
Max Temperature 63 °F - 89 °F (1959)
Min Temperature 45 °F - 35 °F (1976)
Degree Days  
Heating Degree Days 12    
Cooling Degree Days 0    
Month to date cooling degree days 6  
Year to date cooling degree days 81  
Growing Degree Days 3 (Base 50)    
Moisture  
Dew Point 45 °F    
Average Humidity 73    
Maximum Humidity 93    
Minimum Humidity 55    
Precipitation  
Precipitation 0.33 in - 2.56 in (1999)
Month to date precipitation 1.60  
Year to date precipitation 20.08  
Sea Level Pressure  
Sea Level Pressure 29.91 in    
Wind  
Wind Speed 9 mph (WSW)    
Max Wind Speed 14 mph    
Max Gust Speed 18 mph    
Visibility 10 miles    
Events      
T = Trace of Precipitation, MM = Missing Value Source: NWS Daily Summary

Daily Weather History Graph

Daily Weather History Graph

Search for Another Location

Airport or City:

Trip Planner

Search our weather history database for the weather conditions in past years. The results will help you decide how hot, cold, wet, or windy it might be!

Date:

Astronomy

May. 06, 2013 Rise Set
Actual Time 5:50 AM CDT 7:27 PM CDT
Civil Twilight 5:23 AM CDT 7:53 PM CDT
Nautical Twilight 4:51 AM CDT 8:25 PM CDT
Astronomical Twilight 4:18 AM CDT 8:59 PM CDT
Moon 3:41 AM CDT (5/6) 4:35 PM CDT (5/6)
Length of Visible Light 14h 30m
Length of Day
13h 37m
Waning Crescent, 11% of the Moon is Illuminated
May 6
Waning Crescent
May 9
New
May 17
First Quarter
May 24
Full
May 31
Last Quarter

Hourly Weather History & Observations

Time (CDT) Temp. Windchill Dew Point Humidity Pressure Visibility Wind Dir Wind Speed Gust Speed Precip Events Conditions
12:15 AM 46.4 °F 42.9 °F 41.0 °F 81% 29.90 in 10.0 mi West 6.9 mph - N/A   Clear
12:35 AM 46.4 °F 42.4 °F 41.0 °F 81% 29.90 in 10.0 mi West 8.1 mph - N/A   Clear
12:55 AM 46.4 °F 42.4 °F 41.0 °F 81% 29.89 in 10.0 mi West 8.1 mph - N/A   Clear
1:15 AM 46.4 °F 42.9 °F 41.0 °F 81% 29.89 in 10.0 mi West 6.9 mph - N/A   Clear
1:35 AM 46.4 °F 42.9 °F 41.0 °F 81% 29.88 in 10.0 mi West 6.9 mph - N/A   Scattered Clouds
1:55 AM 46.4 °F 42.9 °F 41.0 °F 81% 29.88 in 10.0 mi WSW 6.9 mph - N/A   Overcast
2:15 AM 44.6 °F 40.2 °F 39.2 °F 81% 29.88 in 10.0 mi SW 8.1 mph - N/A   Scattered Clouds
2:35 AM 44.6 °F 40.7 °F 39.2 °F 81% 29.88 in 10.0 mi SW 6.9 mph - N/A   Scattered Clouds
2:55 AM 44.6 °F 40.2 °F 41.0 °F 87% 29.89 in 10.0 mi SW 8.1 mph - N/A   Overcast
3:15 AM 44.6 °F 39.7 °F 41.0 °F 87% 29.89 in 10.0 mi SW 9.2 mph - N/A   Overcast
3:36 AM 44.6 °F 40.2 °F 42.8 °F 93% 29.89 in 7.0 mi WSW 8.1 mph - N/A   Overcast
3:55 AM 44.6 °F 39.7 °F 41.0 °F 87% 29.90 in 3.0 mi WSW 9.2 mph - N/A   Overcast
4:15 AM 44.6 °F 40.7 °F 42.8 °F 93% 29.90 in 2.0 mi West 6.9 mph - N/A   Overcast
4:35 AM 46.4 °F 41.9 °F 42.8 °F 87% 29.90 in 9.0 mi West 9.2 mph - N/A   Overcast
4:55 AM 46.4 °F 41.9 °F 42.8 °F 87% 29.90 in 10.0 mi West 9.2 mph - N/A   Overcast
5:15 AM 46.4 °F 41.1 °F 42.8 °F 87% 29.90 in 10.0 mi West 11.5 mph 17.3 mph N/A   Overcast
5:35 AM 46.4 °F 41.5 °F 42.8 °F 87% 29.90 in 10.0 mi West 10.4 mph - N/A   Overcast
5:55 AM 46.4 °F 41.5 °F 42.8 °F 87% 29.91 in 10.0 mi WSW 10.4 mph - N/A   Overcast
6:15 AM 46.4 °F 42.9 °F 42.8 °F 87% 29.92 in 10.0 mi WSW 6.9 mph - N/A   Overcast
6:35 AM 46.4 °F 42.4 °F 42.8 °F 87% 29.93 in 10.0 mi West 8.1 mph - N/A   Overcast
6:55 AM 46.4 °F 41.9 °F 42.8 °F 87% 29.93 in 10.0 mi West 9.2 mph - N/A   Overcast
7:15 AM 46.4 °F 41.9 °F 42.8 °F 87% 29.94 in 10.0 mi West 9.2 mph - N/A   Overcast
7:35 AM 48.2 °F - 42.8 °F 82% 29.93 in 10.0 mi West 6.9 mph - N/A   Overcast
7:55 AM 50.0 °F - 42.8 °F 76% 29.93 in 10.0 mi West 6.9 mph - N/A   Overcast
8:15 AM 50.0 °F - 42.8 °F 76% 29.93 in 10.0 mi WSW 5.8 mph - N/A   Overcast
8:35 AM 51.8 °F - 42.8 °F 71% 29.93 in 10.0 mi SW 9.2 mph - N/A   Overcast
8:55 AM 53.6 °F - 44.6 °F 72% 29.93 in 10.0 mi SW 10.4 mph - N/A   Mostly Cloudy
9:15 AM 53.6 °F - 44.6 °F 72% 29.93 in 10.0 mi SW 11.5 mph - N/A   Partly Cloudy
9:35 AM 55.4 °F - 44.6 °F 67% 29.94 in 10.0 mi WSW 15.0 mph 19.6 mph N/A   Partly Cloudy
10:15 AM 57.2 °F - 44.6 °F 63% 29.95 in 10.0 mi West 13.8 mph 17.3 mph N/A   Overcast
10:35 AM 57.2 °F - 44.6 °F 63% 29.95 in 10.0 mi WSW 10.4 mph - N/A   Overcast
10:55 AM 57.2 °F - 44.6 °F 63% 29.94 in 10.0 mi WSW 9.2 mph - N/A   Overcast
11:15 AM 57.2 °F - 44.6 °F 63% 29.94 in 10.0 mi SW 15.0 mph - N/A   Overcast
11:35 AM 60.8 °F - 44.6 °F 55% 29.95 in 10.0 mi WSW 13.8 mph 18.4 mph N/A   Overcast
11:55 AM 59.0 °F - 44.6 °F 59% 29.94 in 10.0 mi WSW 11.5 mph 18.4 mph N/A   Overcast
12:15 PM 60.8 °F - 44.6 °F 55% 29.93 in 10.0 mi WSW 5.8 mph - N/A   Overcast
12:35 PM 60.8 °F - 44.6 °F 55% 29.93 in 10.0 mi SW 11.5 mph - N/A   Overcast
12:55 PM 60.8 °F - 44.6 °F 55% 29.93 in 10.0 mi West 9.2 mph - N/A   Overcast
1:15 PM 59.0 °F - 44.6 °F 59% 29.93 in 10.0 mi SW 10.4 mph 18.4 mph N/A   Mostly Cloudy
1:35 PM 57.2 °F - 44.6 °F 63% 29.93 in 10.0 mi WSW 8.1 mph - N/A   Overcast
1:55 PM 57.2 °F - 44.6 °F 63% 29.93 in 10.0 mi WSW 5.8 mph - N/A   Overcast
2:15 PM 57.2 °F - 44.6 °F 63% 29.92 in 10.0 mi SW 6.9 mph - N/A   Overcast
2:35 PM 60.8 °F - 46.4 °F 59% 29.92 in 10.0 mi WSW 10.4 mph - N/A   Mostly Cloudy
2:55 PM 60.8 °F - 46.4 °F 59% 29.91 in 10.0 mi SW 10.4 mph - N/A   Mostly Cloudy
3:15 PM 62.6 °F - 46.4 °F 55% 29.90 in 10.0 mi WSW 9.2 mph - N/A   Overcast
3:35 PM 60.8 °F - 46.4 °F 59% 29.90 in 10.0 mi WSW 13.8 mph - N/A   Overcast
3:55 PM 60.8 °F - 46.4 °F 59% 29.89 in 10.0 mi SW 11.5 mph - N/A   Overcast
4:15 PM 60.8 °F - 46.4 °F 59% 29.88 in 10.0 mi WSW 9.2 mph - N/A   Overcast
4:35 PM 60.8 °F - 46.4 °F 59% 29.88 in 10.0 mi WSW 9.2 mph - N/A   Overcast
4:55 PM 62.6 °F - 48.2 °F 59% 29.88 in 10.0 mi SW 11.5 mph - N/A   Overcast
5:15 PM 60.8 °F - 46.4 °F 59% 29.88 in 10.0 mi SSW 13.8 mph 18.4 mph N/A   Overcast
5:55 PM 60.8 °F - 48.2 °F 63% 29.88 in 10.0 mi SSW 10.4 mph - N/A   Overcast
6:15 PM 60.8 °F - 48.2 °F 63% 29.88 in 10.0 mi WSW 10.4 mph 18.4 mph N/A   Overcast
6:35 PM 60.8 °F - 46.4 °F 59% 29.88 in 10.0 mi SW 15.0 mph - N/A   Overcast
6:55 PM 59.0 °F - 46.4 °F 63% 29.88 in 10.0 mi SW 11.5 mph 18.4 mph N/A   Overcast
7:15 PM 59.0 °F - 48.2 °F 67% 29.89 in 10.0 mi SW 9.2 mph - N/A   Overcast
7:35 PM 57.2 °F - 48.2 °F 72% 29.90 in 10.0 mi SW 11.5 mph - N/A   Overcast
7:55 PM 57.2 °F - 48.2 °F 72% 29.90 in 10.0 mi WSW 13.8 mph 17.3 mph N/A   Overcast
8:15 PM 57.2 °F - 48.2 °F 72% 29.90 in 10.0 mi SW 10.4 mph - N/A   Overcast
8:35 PM 57.2 °F - 48.2 °F 72% 29.91 in 10.0 mi WSW 9.2 mph - N/A   Overcast
8:55 PM 55.4 °F - 50.0 °F 82% 29.92 in 10.0 mi WSW 9.2 mph - N/A   Overcast
9:15 PM 55.4 °F - 50.0 °F 82% 29.92 in 8.0 mi SW 6.9 mph - 0.05 in   Overcast
9:35 PM 55.4 °F - 50.0 °F 82% 29.93 in 9.0 mi North 6.9 mph - 0.12 in   Overcast
9:55 PM 53.6 °F - 48.2 °F 82% 29.92 in 8.0 mi Calm Calm - 0.32 in   Overcast
10:15 PM 53.6 °F - 50.0 °F 88% 29.93 in 10.0 mi NW 3.5 mph - 0.01 in   Overcast
10:35 PM 53.6 °F - 48.2 °F 82% 29.93 in 10.0 mi West 3.5 mph - 0.01 in   Mostly Cloudy
10:55 PM 53.6 °F - 48.2 °F 82% 29.92 in 10.0 mi Calm Calm - 0.01 in   Mostly Cloudy
11:15 PM 53.6 °F - 48.2 °F 82% 29.92 in 10.0 mi WNW 3.5 mph - N/A   Overcast
11:35 PM 53.6 °F - 50.0 °F 88% 29.92 in 10.0 mi WNW 4.6 mph - N/A   Overcast
11:55 PM 53.6 °F - 50.0 °F 88% 29.93 in 10.0 mi NNW 3.5 mph - N/A   Overcast